Showing default

GREB, 731

Orbit data source: Space-Track

GREB, 731 is an American payload satellite in LEO that was launched on Sat, 11 Jan 1964 UTC via a THOR SLV-2A AGENA D launch vehicle from the Air Force Western Test Range (AFWTR). Payload-class satellites include a variety of spacecraft equipped with specific instruments for various scientific and technological missions. These include communications satellites like Starlink; space stations such as the ISS; scientific satellites like the Hubble; Earth observation satellites from companies like Planet Labs, Umbra, and HawkEye 360; GPS; miniature CubeSats for education and research; and military/defense satellites.

Loading next visibility...
Identifier
731, 1964-001E
Orbit
LEO
Country
Flag of USUS
Related business
Manufacturer
NRL
Mission
Spacecraft
Bus & Motor
NRL 20", Unknown motor
Mass
29 kg wet, 29 kg dry
Launch date (UTC)
1964-01-11 (62 years ago)
Launch vehicle
THOR SLV-2A AGENA D
Launch site
Air Force Western Test Range (AFWTR)
Object type
Payload
Rocket body
Debris
Shape & HBR
Unknown
Radar Cross Section
Medium (>0.1 m² and <1 m²)

Expand to show TLE details & history
Last TLE update: 10 hours ago

TLE from 10 hours ago
0 GREB
1   731U 64001E   25343.16065002  .00000090  00000-0  10457-3 0  9998
2   731  69.9062 315.3426 0017038 272.0032  87.9122 13.96273879151050
Epoch: 2025-12-09T03:51Z
TLE epoch observation values (Epoch: 2025-12-09T03:51:20.161Z)
Latitude
-0.00003°
Longitude
179.35927°
Altitude
908.602 km
Speed
7.398 km/s
True Right ascension
21h 01m 22s
True Declination
0° 00' 00"
Sunlit
Object was in daylight at epoch
Visualization orbit readout
Latitude
Unknown
Longitude
Unknown
Altitude
Unknown
Speed
Unknown
Apparent Right ascension
Unknown
Apparent Declination
Unknown
Sunlit
N/A
Visualization observer readout
Local Sidereal Time
12:08:45
Azimuth
Unknown
Elevation
Unknown
Doppler factor
Unknown
Orbital elements
Apogee altitude
917.188 km
Perigee altitude
892.371 km
Semi-major axis
7,282.916 km
Eccentricity
0.0017
Inclination
69.9062°
RAAN
315.3426°
Arg. of periapsis
272.0032°
True anomaly
88.10733°
Mean anomaly
87.9122°
Eccentric anomaly
88.00976°
Mean motion
3.49209 °/min
Orbital period
103.09 mins
BSTAR
0.00010457
Loading maneuver chart data...
Computing Atmospheric mass density...
Loading historical data...
Loading historical data...
Loading historical data...
Loading historical data...
Loading historical data...
Loading historical data...
Loading historical data...
Other satellites on launch #1 in the year 1964 (1964-01-11 UTC)

Documentation

Showing up to 5 results
|